Simultaneous Nadir Overpasses (SNOs) Predictions

Prediction of SNOs between GOES-15 and TERRA Satellite Orbit:

Table of predicted SNOs for the next 14.0 days since TLE Epoch: 1/14/2013
Index Date Time (GOES-15) GOES-15 Lat,Lon TERRA Lat,Lon Distance(km) Time Diff (sec)
1 01/14/2013 07:15:57 -0.01,-135.02 0.66,-131.93 352.49 80
2 01/14/2013 19:37:11 0.02,-135.03 0.48,-137.07 233.16 80
3 01/16/2013 19:27:40 0.03,-134.96 -0.16,-134.12 95.69 80
4 01/17/2013 07:49:04 -0.04,-134.93 -0.95,-139.31 498.00 80
5 01/18/2013 19:15:28 0.02,-134.89 -0.75,-131.16 424.09 80
6 01/19/2013 07:36:52 -0.03,-134.85 -0.36,-136.34 169.87 80
7 01/21/2013 07:22:00 -0.03,-134.77 0.25,-133.38 157.70 80
8 01/21/2013 19:43:16 0.03,-134.76 0.82,-138.54 429.44 80
9 01/23/2013 07:09:48
